Regional Weather Roundup
Issued by NWS Bismarck, ND

Home | Current Version | Previous Version | Text Only | Print | Product List | Glossary On
Versions: 1 2 3 4 5 6 7 8 9 10 11 12 13 14 15 16 17 18 19 20 21 22 23 24 25 26 27 28 29 30 31 32 33 34 35 36 37 38 39 40 41 42 43 44 45 46 47 48 49 50
598
ASUS43 KBIS 302002
RWRBIS

NWR BROADCAST TEXT
NATIONAL WEATHER SERVICE BISMARCK ND
300 PM CDT SUN APR 30 2017

NOTE: "FAIR" INDICATES FEW OR NO CLOUDS BELOW 12,000 FEET WITH NO
SIGNIFICANT WEATHER AND/OR OBSTRUCTIONS TO VISIBILITY.


CITY           SKY/WX    TMP DP  RH WIND       PRES   REMARKS
WILLISTON      FAIR      68  20  16 S10       29.87F
MINOT          PTSUNNY   67  22  18 S8G17     29.91F
MINOT AFB      FAIR      67  24  19 S13G22    29.89F
BISMARCK       FAIR      63  24  22 SE10      29.94F
DICKINSON      FAIR      61  14  16 S9        29.90F
GARRISON         N/A     62  20  19 SW6       29.92F
HETTINGER ARPT FAIR      61  22  22 E6        29.94F
JAMESTOWN      FAIR      61  25  25 E16G22    29.93F
HAZEN          FAIR      64  18  16 S10       29.94F
LINTON         FAIR      61  30  31 NE10G20   29.94F
MANDAN         FAIR      61  21  21 S6        29.94F
STANLEY        FAIR      63  23  22 S17G25    29.92F
TIOGA          FAIR      64  16  15 S21       29.90F
WATFORD CITY   FAIR      66  19  16 S18G24    29.88F
$$

CITY           SKY/WX    TMP DP  RH WIND       PRES   REMARKS
GRAND FORKS    FAIR      63  27  25 E14G22    29.97F
GRAND FORKS AF FAIR      61  27  27 E13G22    29.98F
DEVILS LAKE    FAIR      59  26  28 SE12      29.97F
FARGO          FAIR      61  19  19 NE12G23   29.92F
CAVALIER       FAIR      61  30  31 SE8G20    29.98F
GRAFTON        FAIR      61  28  29 SE13      30.01F
GWINNER        CLEAR     57  21  24 MISG      29.91F
LANGDON        FAIR      66  27  22 SE10G20   29.97S
ROLLA          FAIR      63  21  20 SE15      29.95F
$$

CITY           SKY/WX    TMP DP  RH WIND       PRES   REMARKS
ABERDEEN       FAIR      57  15  19 NE22G28   29.89F
MOBRIDGE       FAIR      63  21  20 E13G21    29.88F
BUFFALO          N/A     59  19  21 W7        29.87F
RAPID CITY     FAIR      59  24  26 N13G20    29.91F
GLASGOW        FAIR      63  31  30 W14G24    29.82F
SIDNEY         FAIR      67  24  19 S15G21    29.86F
WOLF POINT     FAIR      67  28  23 W14G20    29.82F
GLENDIVE       CLOUDY    65  25  22 S14       29.87F
MILES CITY     FAIR      63  29  27 W8        29.88F
$$

CITY           SKY/WX    TMP DP  RH WIND       PRES   REMARKS
BILLINGS       PTSUNNY   61  32  33 W20G25    29.90F
GREAT FALLS    FAIR      58  32  37 W22G31    29.88F
$$





USA.gov is the U.S. government's official web portal to all federal, state and local government web resources and services.